User: anonymous   Login
Location: Borgo
(42.3939°N, 9.2791°E)
Time: 21:59:42
(UTC+00:00)
Language:

ISS - Orbit

View from above orbital plane
View from above orbital plane
View from above satellite
View from above satellite

Ground track
Ground track

The orbit data is extracted from the following two-line orbital elements,

1 25544U 98067A   21127.52244309  .00000513  00000-0  17484-4 0  9999
2 25544  51.6440 183.8589 0002786 330.8212 128.7707 15.48982455282292
Epoch (UTC): 07 May 2021 12:32:19
Eccentricity: 0.0002786
inclination: 51.6440°
perigee height: 418 km
apogee height: 421 km
right ascension of ascending node: 183.8589°
argument of perigee: 330.8212°
revolutions per day: 15.48982455
mean anomaly at epoch: 128.7707°
orbit number at epoch: 28229

The dashed part of the orbit path shows where the satellite is in the earth's shadow,  

DLR